Rbgn^[z[y[W
メイン
   新天体発見情報
     Comet P/2024 N2 = 2010 T8 = 2017 R2 (PANSTARRS)
投稿するにはまず登録を

フラット表示 前のトピック | 次のトピック
投稿者 スレッド
佐藤裕久
投稿日時: 2024-7-20 14:08
モデレータ
登録日: 2005-6-12
居住地: 日本
投稿: 2674
オンライン
Comet P/2024 N2 = 2010 T8 = 2017 R2 (PANSTARRS)

R. Weryk (西オンタリオ大学,物理および天文学科)の通報によると、7月3日、Haleakalaにある
Pan-STARRS2 1.8-m Ritchey-Chretien反射望遠鏡で得た画像から彗星を発見した。
HaleakalaにあるPan-STARRS2 1.8-m Ritchey-Chretien反射望遠鏡で今年初めに得られ、Werykに
よって同定された。
7月3日、1".4-1".6のシーイングで得た、4枚の45-秒w-バンドのサーベイ画像は、1".7(半値全幅:
FWHM)の非常に集光した頭部が見え、p.a. 245°に向かって、5"のまっすぐな尾がある。 
Weryk(とR. Wainscoat)が、7月4.6日UT、3.6-m Canada-France-Hawaii望遠鏡で、3枚の60-秒gri-
バンドフォローアップ画像を得た。1".0のシーイングで、この彗星は1".2(半値全幅:FWHM)の非常
に集光した頭部が見え、p.a.240°に10"のまっすぐな尾がある。
Weyrkはその後、この彗星の以前の小惑星と思われる画像(2010年10月8日、2016年6月29日、2017年
9月2日のPan-STARRS1露出と、2023年3月26日と27日のPan-STARRS2の追加画像)をに同定した。
S. Deen (Simi Valley, カリフォルニア州, 米国)は、2009年と2017年の公開CCD画像から、この彗星
の観測を確認したと書き込んだ。 22017年7月23日、Cerro Tololo Interamerican天文台の4-m反射
望遠鏡で得たDECam画像で、200-秒のg-バンド画像は、約0".8(FWHM)の典型的な恒星の核集光に見え、
周囲の恒星と同じだが、部分的に切り離されたように集光部からp.a.255°に10"のかすかで広い尾が
伸びている。 2017年7月19日、z-バンド画像では、彗星は再び恒星状(そして非常に暗い)で核集光の
彗星状に見え、p.a.257°に12"の尾がある。 2009年のPan-STARRS1のr-バンド画像は、暗すぎて詳細
は分からない。

彗星機能の報告は次のとおり、

OC   Date        Reporter           Coma    Tail    PA          Exposures
W84  2017-07-19  S. Deen            1".5     12"    257
W84  2017-07-23  S. Deen            1".3     10"    255
T14  2024-07-04  R. Weryk           0".2     10"    240            3x60s
L06  2024-07-09  P. Sicoli          3"        7"    257

発見位置は次のとおり、

     2024 UT             R.A. (2000) Decl.       Mag.   Observer
     Apr.  9.61330   20 12 15.19   -15 34 50.7   22.6   Pan-STARRS2
           9.61851   20 12 15.64   -15 34 48.2   22.1     "
     June  7.57144   21 08 30.46   - 7 43 09.5   21.7     "
           7.57932   21 08 30.62   - 7 43 06.4   22.0     "
           7.59507   21 08 30.92   - 7 42 59.9   21.8     "
          15.53828   21 10 30.49   - 6 52 14.5   21.5     "
          15.55089   21 10 30.58   - 6 52 09.9   21.4     "
          15.56354   21 10 30.68   - 6 52 05.5   21.5     "
     July  3.52308   21 09 13.86   - 5 25 40.9   21.1   Pan-STARRS1
           3.53454   21 09 13.63   - 5 25 38.6   21.1     "
           3.54594   21 09 13.41   - 5 25 36.3   20.9     "
           3.55735   21 09 13.18   - 5 25 33.8   21.5     "

同定位置は次のとおり、

     2010 UT             R.A. (2000) Decl.       Mag.   Observer
     Oct.  8.41151    2 19 04.05   +20 01 45.2   23.3   Pan-STARRS1
           8.41360    2 19 03.95   +20 01 44.1   22.1     "
           8.43186    2 19 03.27   +20 01 40.2   23.8     "
           8.45092    2 19 02.50   +20 01 36.1   23.8     "

     2016 UT             R.A. (2000) Decl.       Mag.   Observer
     June 29.28446   14 45 32.36   -16 41 18.1   22.5   Pan-STARRS1
          29.29686   14 45 32.39   -16 41 16.1   21.8     "
          29.30916   14 45 32.40   -16 41 13.9   22.7     "
          29.32144   14 45 32.44   -16 41 11.8   22.2     "

     2017 UT             R.A. (2000) Decl.       Mag.   Observer
     Sept. 2.41602    0 17 22.76   +13 15 55.7   22.4   Pan-STARRS1
           2.42709    0 17 22.34   +13 15 53.5   21.5     "
           2.43818    0 17 22.00   +13 15 51.8   22.3     "

     2009 UT             R.A. (2000) Decl.       Mag.   Observer
     June 27.46784   19 35 28.88   -13 09 54.9          Pan-STARRS1
          27.48024   19 35 28.42   -13 09 52.7   21.1     "

     2017 UT             R.A. (2000) Decl.       Mag.   Observer
     July 19.41577    0 22 02.61   +12 19 49.1          DECam
          23.39497    0 23 23.45   +12 38 17.3   23.5     "

MPCの楕円軌道要素、位置推算表は次のとおり、

Orbital elements:
    P/2024 N2 (PANSTARRS)                                                       
Epoch 2024 June 19.0 TT = JDT 2460480.5                                         
T 2024 May 31.05612 TT                                  Rudenko                 
q   2.4403735            (2000.0)            P               Q                  
n   0.13326319     Peri.   48.88349     +0.39933266     +0.90853328             
a   3.7960266      Node   245.04747     -0.87653666     +0.33905913             
e   0.3571242      Incl.    7.78963     -0.26873204     +0.24414377             
P   7.40                                                                        
From 32 observations 2010 Oct. 8-2024 July 9, mean residual 1".4.               
                                                                                
    P/2024 N2 (PANSTARRS)                                                       
Epoch 2017 Jan. 7.0 TT = JDT 2457760.5                                          
T 2017 Jan. 1.52094 TT                                  Rudenko                 
q   2.4384649            (2000.0)            P               Q                  
n   0.13331851     Peri.   48.58396     +0.39623362     +0.90987124             
a   3.7949765      Node   245.15160     -0.87764610     +0.33598264             
e   0.3574493      Incl.    7.79145     -0.26969659     +0.24341322             
P   7.39                                                                        
From 32 observations 2010 Oct. 8-2024 July 9, mean residual 1".4.               
                                                                                
    P/2024 N2 (PANSTARRS)                                                       
Epoch 2024 Mar. 31.0 TT = JDT 2460400.5                                         
T 2024 May 31.05805 TT                                  Rudenko                 
q   2.4403726            (2000.0)            P               Q                  
n   0.13323466     Peri.   48.88473     +0.39934524     +0.90852797             
a   3.7965685      Node   245.04702     -0.87653189     +0.33907179             
e   0.3572162      Incl.    7.78955     -0.26872893     +0.24414595             
P   7.40                                                                        
From 32 observations 2010 Oct. 8-2024 July 9, mean residual 1".4.               
                                                                                
Ephemeris:
Date    TT    R. A. (2000) Decl.     Delta      r    Elong.  Phase   m1
2024 06 10    21 09 17.1 -07 26 56   1.7533  2.4412   121.4    20.8  21.1
...
2024 06 25    21 10 49.8 -06 01 10   1.6237  2.4459   134.5    17.2  20.9
...
2024 07 03    21 09 22.8 -05 27 31   1.5683  2.4500   141.9    14.8  20.9
...
2024 07 09    21 07 19.4 -05 08 47   1.5343  2.4538   147.6    12.8  20.8
2024 07 10    21 06 54.4 -05 06 14   1.5294  2.4544   148.5    12.5  20.8
2024 07 11    21 06 28.2 -05 03 51   1.5246  2.4552   149.5    12.1  20.8
...
2024 07 17    21 03 28.7 -04 53 01   1.5003  2.4598   155.1    10.0  20.8
...
2024 07 25    20 58 41.3 -04 47 46   1.4804  2.4669   162.1     7.3  20.8
...
2024 08 09    20 48 40.0 -05 03 56   1.4840  2.4830   167.3     5.2  20.8

中野主一氏(中央局)による楕円軌道要素は次のとおり、

                    Epoch = 1994 June 17.0 TT
     T = 1994 July  5.08186 TT        Peri. =  48.07454
     e = 0.3487920                    Node  = 245.99366 2000.0
     q = 2.4966385 AU                 Incl. =   7.78051
       a =  3.8338571 AU   n = 0.13129560   P =   7.51 years

                    Epoch = 2002 Jan.  6.0 TT
     T = 2002 Jan. 13.59174 TT        Peri. =  48.20307
     e = 0.3471843                    Node  = 245.90766 2000.0
     q = 2.5099879 AU                 Incl. =   7.77136
       a =  3.8448644 AU   n = 0.13073219   P =   7.54 years

                    Epoch = 2009 July 28.0 TT
     T = 2009 July 23.18056 TT        Peri. =  48.23299
     e = 0.3489598                    Node  = 245.83919 2000.0
     q = 2.4993989 AU                 Incl. =   7.77159
       a =  3.8390853 AU   n = 0.13102749   P =   7.52 years

                    Epoch = 2017 Jan.  7.0 TT
     T = 2017 Jan.  1.52308 TT        Peri. =  48.58539
     e = 0.3574490                    Node  = 245.15055 2000.0
     q = 2.4384660 AU                 Incl. =   7.79164
       a =  3.7949767 AU   n = 0.13331850   P =   7.39 years

                    Epoch = 2024 June 19.0 TT
     T = 2024 May  31.05837 TT        Peri. =  48.88492
     e = 0.3571240                    Node  = 245.04642 2000.0
     q = 2.4403745 AU                 Incl. =   7.78981
       a =  3.7960268 AU   n = 0.13326318   P =   7.40 years

                    Epoch = 2031 Oct. 21.0 TT
     T = 2031 Oct. 18.60421 TT        Peri. =  48.42223
     e = 0.3558314                    Node  = 245.00450 2000.0
     q = 2.4496088 AU                 Incl. =   7.78362
       a =  3.8027449 AU   n = 0.13291019   P =   7.42 years

                    Epoch = 2039 Apr.  2.0 TT
     T = 2039 Mar. 18.10616 TT        Peri. =  48.42908
     e = 0.3538584                    Node  = 244.91440 2000.0
     q = 2.4608856 AU                 Incl. =   7.77034
       a =  3.8085858 AU   n = 0.13260456   P =   7.43 years

                    Epoch = 2046 Aug.  3.0 TT
     T = 2046 Aug. 22.11243 TT        Peri. =  48.63029
     e = 0.3552758                    Node  = 244.85536 2000.0
     q = 2.4499486 AU                 Incl. =   7.77771
       a =  3.7999950 AU   n = 0.13305449   P =   7.41 years
   From 35 observations 2009 June 27-2024 July 9, mean residual 0".3.

(MPEC 2024-N123、CBET 5411)

フラット表示 前のトピック | 次のトピック

題名 投稿者 日時
 » Comet P/2024 N2 = 2010 T8 = 2017 R2 (PANSTARRS) 佐藤裕久 2024-7-20 14:08

投稿するにはまず登録を
 
© 1999 Tsutomu Seki.